TimeEST,TemperatureF,Dew PointF,Humidity,Sea Level PressureIn,VisibilityMPH,Wind Direction,Wind SpeedMPH,Gust SpeedMPH,PrecipitationIn,Events,Conditions,WindDirDegrees,DateUTC
12:54 AM,30.9,27.0,85,30.18,6.0,Calm,Calm,-,N/A,,Clear,0,2012-11-08 05:54:00
1:54 AM,28.9,26.1,89,30.18,4.0,WNW,3.5,-,N/A,,Clear,300,2012-11-08 06:54:00
2:54 AM,28.9,25.0,85,30.19,4.0,Calm,Calm,-,N/A,,Clear,0,2012-11-08 07:54:00
3:54 AM,28.9,26.1,89,30.19,5.0,Calm,Calm,-,N/A,,Clear,0,2012-11-08 08:54:00
4:54 AM,26.1,23.0,88,30.20,4.0,Calm,Calm,-,N/A,,Clear,0,2012-11-08 09:54:00
5:54 AM,27.0,23.0,85,30.22,6.0,Calm,Calm,-,N/A,,Clear,0,2012-11-08 10:54:00
6:54 AM,28.0,26.1,92,30.22,4.0,Calm,Calm,-,N/A,,Overcast,0,2012-11-08 11:54:00
7:11 AM,30.2,28.4,93,30.20,2.5,Calm,Calm,-,N/A,,Overcast,0,2012-11-08 12:11:00
7:54 AM,30.9,28.9,92,30.23,2.5,Calm,Calm,-,N/A,,Overcast,0,2012-11-08 12:54:00
8:54 AM,32.0,30.0,92,30.25,3.0,South,3.5,-,N/A,,Overcast,180,2012-11-08 13:54:00
9:03 AM,33.8,30.2,87,30.22,2.5,Calm,Calm,-,N/A,,Overcast,0,2012-11-08 14:03:00
9:54 AM,36.0,32.0,86,30.25,2.5,Calm,Calm,-,N/A,,Overcast,0,2012-11-08 14:54:00
10:54 AM,39.0,35.1,86,30.25,2.5,South,3.5,-,N/A,,Overcast,190,2012-11-08 15:54:00
11:01 AM,39.2,35.6,87,30.23,4.0,SSW,4.6,-,N/A,,Haze,200,2012-11-08 16:01:00
11:05 AM,39.2,35.6,87,30.23,2.5,SSW,3.5,-,N/A,,Haze,200,2012-11-08 16:05:00
11:54 AM,43.0,37.9,82,30.24,3.0,SW,6.9,-,N/A,,Haze,220,2012-11-08 16:54:00
12:54 PM,45.0,37.9,76,30.22,4.0,SW,6.9,-,N/A,,Haze,230,2012-11-08 17:54:00
1:54 PM,45.0,37.0,74,30.21,5.0,SW,6.9,-,N/A,,Haze,230,2012-11-08 18:54:00
2:54 PM,45.0,35.1,68,30.19,7.0,SSW,10.4,-,N/A,,Overcast,210,2012-11-08 19:54:00
3:36 PM,44.6,35.6,71,30.16,8.0,WSW,8.1,-,N/A,,Overcast,240,2012-11-08 20:36:00
3:54 PM,45.0,34.0,65,30.19,9.0,SW,9.2,-,N/A,,Overcast,220,2012-11-08 20:54:00
4:54 PM,45.0,34.0,65,30.18,7.0,South,9.2,-,N/A,,Overcast,190,2012-11-08 21:54:00
5:54 PM,44.1,33.1,65,30.18,10.0,SW,8.1,-,N/A,,Overcast,230,2012-11-08 22:54:00
6:54 PM,43.0,33.1,68,30.19,10.0,SSW,4.6,-,N/A,,Overcast,200,2012-11-08 23:54:00
7:54 PM,43.0,33.1,68,30.18,9.0,SSW,6.9,-,N/A,,Overcast,210,2012-11-09 00:54:00
8:54 PM,39.0,32.0,76,30.17,8.0,South,5.8,-,N/A,,Partly Cloudy,190,2012-11-09 01:54:00
9:54 PM,39.0,32.0,76,30.17,8.0,South,4.6,-,N/A,,Clear,180,2012-11-09 02:54:00
10:54 PM,37.9,30.9,76,30.16,7.0,Calm,Calm,-,N/A,,Clear,0,2012-11-09 03:54:00
11:54 PM,36.0,30.0,79,30.16,6.0,South,3.5,-,N/A,,Haze,170,2012-11-09 04:54:00